Location: Bessat
(45.8735°N, 1.9924°E)
Time: 04:04:10
(UTC+00:00)

MetOp-B - Pass Details

Date: 11 May 2021
Orbit: 819 x 821 km, 98.7° (Epoch: 14 June)

Event Time Altitude Azimuth Distance (km) Brightness Sun altitude
Exits shadow 20:15:12 11° 146° (SE) 2,320 5.9 -9.9°
Maximum altitude 20:20:10 56° 70° (ENE) 976 4.4 -10.6°
Drops below altitude 10° 20:25:24 10° 354° (N) 2,428 7.3 -11.3°
Sets 20:27:47 0° 350° (N) 3,364 8.2 -11.6°
